[[{"header":{"parameterUnit":"m.s-1","parameterCategory":1,"la1":30.2991,"la2":30.254,"lo1":-89.0895,"lo2":-89.0444,"dy":0.0017,"dx":0.0017,"nx":28,"ny":28,"refTime":"2023-09-01T21:00:00:Z","depth":0,"parameterNumber":2,"parameterNumberName":"U-component_of_WINDS"},"data":[0,0,0,0,0,0,0,0,0,0,0,0,0,0,0,0,0,0,0,0,0,0,0,0,0,0,0,0,0,0,0,0,0,0,0,0,0,0,0,0,0,0,0,0,0,0,0,0,0,0,0,0,0,0,0,0,0,0,-2.1197,-2.1198,0,-2.1294,-2.1295,-2.1297,-2.1327,-2.1327,-2.1326,-2.1326,-2.1423,-2.1426,-2.1429,0,0,0,0,0,0,0,0,0,0,0,0,0,-2.1036,-2.1039,-2.1197,-2.1198,-2.12,-2.1294,-2.1296,-2.1297,-2.1327,-2.1326,-2.1326,-2.1325,-2.1422,-2.1425,-2.1429,0,0,0,0,0,0,0,0,0,0,0,0,0,-2.1117,-2.1039,-2.1197,-2.1226,-2.123,-2.1294,-2.1296,-2.1297,-2.1327,-2.1326,-2.1326,-2.1325,-2.1421,-2.1425,-2.1429,-2.1471,0,0,-2.1443,-2.1445,0,0,0,0,0,0,0,0,-2.1112,-2.1122,-2.1221,-2.1224,-2.1228,-2.1298,-2.1274,-2.1355,-2.1327,-2.129,-2.1326,-2.1325,-2.1382,-2.1389,-2.1409,-2.1476,-2.148,-2.1444,-2.1446,-2.1448,-2.145,0,0,0,0,0,0,0,-2.1106,-2.1118,-2.1236,-2.1222,-2.1227,-2.1234,-2.1244,-2.129,-2.1338,-2.1293,-2.1296,-2.1307,-2.1384,-2.1405,-2.1411,-2.1481,-2.1444,-2.1448,-2.145,-2.1452,-2.1586,-2.1586,0,0,0,0,0,0,-2.1096,-2.1114,-2.1233,-2.1239,-2.1167,-2.1237,-2.1249,-2.1276,-2.1338,-2.1347,-2.1307,-2.1308,-2.1397,-2.1406,-2.1415,-2.1467,-2.1448,-2.1453,-2.1455,-2.1585,-2.1586,-2.1587,0,0,0,0,0,0,-2.1093,-2.1106,-2.1229,-2.1177,-2.1193,-2.1241,-2.1271,-2.1279,-2.13,-2.1349,-2.1357,-2.132,-2.1397,-2.1409,-2.1457,-2.1471,-2.1455,-2.1459,-2.1584,-2.1585,-2.1586,-2.1571,0,0,0,0,0,0,-2.1088,-2.1105,-2.1122,-2.1177,-2.1196,-2.1269,-2.1272,-2.1281,-2.1307,-2.1309,-2.1363,-2.1371,-2.1397,-2.145,-2.1461,-2.1477,-2.1462,-2.1583,-2.1584,-2.1586,-2.1571,-2.1572,-2.1573,0,0,0,0,0,-2.1082,-2.1113,-2.1122,-2.1137,-2.1218,-2.127,-2.1281,-2.1311,-2.1309,-2.1325,-2.1357,-2.1369,-2.1468,-2.1455,-2.1468,-2.1484,-2.1582,-2.1584,-2.1586,-2.157,-2.1572,-2.1573,0,0,0,0,0,0,-2.1058,-2.1121,-2.1132,-2.1182,-2.1221,-2.1275,-2.1297,-2.1312,-2.1351,-2.1351,-2.1386,-2.1398,-2.1443,-2.1469,-2.1453,-2.1527,-2.1525,-2.153,-2.1509,-2.1511,-2.1512,-2.1504,-2.1466,0,0,0,0,0,-2.1059,-2.1097,-2.115,-2.1189,-2.1208,-2.1249,-2.1273,-2.1293,-2.1334,-2.135,-2.1385,-2.1424,-2.1463,-2.1489,-2.1528,-2.1575,-2.1586,-2.1593,-2.1594,-2.1595,-2.1598,-2.1624,-2.1627,-2.1593,-2.1593,-2.1593,0,0,-2.106,-2.1099,-2.1121,-2.1185,-2.1217,-2.1255,-2.1263,-2.1302,-2.133,-2.1356,-2.1404,-2.1431,-2.1476,-2.1523,-2.1546,-2.1546,-2.161,-2.1597,-2.1597,-2.16,-2.1626,-2.1629,-2.1632,-2.1594,-2.1594,-2.1594,0,0,-2.1082,-2.1116,-2.1152,-2.1184,-2.1233,-2.126,-2.1269,-2.1322,-2.1341,-2.1389,-2.1409,-2.1442,-2.151,-2.1541,-2.1566,-2.1599,-2.1612,-2.1611,-2.1616,-2.1641,-2.1644,-2.1646,-2.1657,-2.1661,-2.1614,-2.1614,-2.1614,0,-2.1078,-2.1136,-2.1169,-2.1208,-2.1235,-2.1261,-2.1297,-2.1326,-2.1385,-2.1402,-2.1402,-2.1487,-2.1519,-2.1574,-2.1582,-2.1602,-2.1612,-2.1605,-2.1641,-2.1644,-2.1647,-2.1657,-2.1662,-2.1614,-2.1614,-2.1614,-2.1614,0,-2.1128,-2.1168,-2.1191,-2.1247,-2.1277,-2.1314,-2.1352,-2.1378,-2.1396,-2.1423,-2.1471,-2.1511,-2.1558,-2.1573,-2.159,-2.163,-2.1629,-2.1634,-2.1632,-2.1649,-2.1659,-2.1664,-2.1613,-2.1613,-2.1614,-2.1614,0,0,-2.1136,-2.1211,-2.1219,-2.1244,-2.13,-2.1331,-2.1369,-2.1416,-2.1437,-2.1477,-2.1509,-2.1566,-2.1571,-2.1599,-2.162,-2.1642,-2.1665,-2.1645,-2.1646,-2.1646,-2.171,-2.1704,-2.1709,-2.1674,-2.1675,-2.1676,-2.1706,0,-2.1165,-2.1234,-2.1265,-2.132,-2.1357,-2.1382,-2.1415,-2.1452,-2.1479,-2.1513,-2.1542,-2.1581,-2.1586,-2.1603,-2.1626,-2.1657,-2.1678,-2.1655,-2.1703,-2.1704,-2.169,-2.1715,-2.1709,-2.1736,-2.171,-2.1711,-2.1712,0,-2.1207,-2.1247,-2.1306,-2.1357,-2.1373,-2.1403,-2.1448,-2.1481,-2.1523,-2.1541,-2.1572,-2.1592,-2.1632,-2.1628,-2.1683,-2.1667,-2.1689,-2.1707,-2.1709,-2.1713,-2.1708,-2.1719,-2.1745,-2.1749,-2.1719,-2.1718,-2.1718,0,-2.1206,-2.1275,-2.1319,-2.134,-2.1401,-2.142,-2.1446,-2.1488,-2.1514,-2.1554,-2.1571,-2.1614,-2.1637,-2.167,-2.1701,-2.1695,-2.1753,-2.1752,-2.1767,-2.1767,-2.1777,-2.1776,-2.1806,-2.1793,-2.1793,-2.1793,-2.1793,0,-2.1233,-2.1268,-2.1319,-2.1346,-2.1386,-2.142,-2.1459,-2.1486,-2.1523,-2.1555,-2.158,-2.1609,-2.1649,-2.1683,-2.1708,-2.1749,-2.176,-2.1774,-2.178,-2.1772,-2.1769,-2.1785,-2.1784,-2.1794,-2.1794,-2.1793,-2.1793,0,-2.1239,-2.1274,-2.1324,-2.1377,-2.1392,-2.1418,-2.1464,-2.149,-2.1518,-2.1558,-2.157,-2.1613,-2.1655,-2.1689,-2.1744,-2.176,-2.1803,-2.181,-2.1788,-2.1791,-2.1805,-2.1803,-2.1845,-2.1852,-2.1835,-2.1835,-2.1835,0,-2.1253,-2.1281,-2.1337,-2.1361,-2.1387,-2.1425,-2.1451,-2.1486,-2.1513,-2.1563,-2.1584,-2.1627,-2.1664,-2.1729,-2.1765,-2.1807,-2.1815,-2.1827,-2.1821,-2.1811,-2.1814,-2.1811,-2.1814,-2.1827,-2.1827,-2.1827,-2.1827,0,-2.1275,-2.1292,-2.133,-2.1374,-2.1405,-2.1442,-2.1478,-2.1496,-2.1538,-2.1567,-2.161,-2.1638,-2.1694,-2.1737,-2.1782,-2.1808,-2.1824,-2.1829,-2.1834,-2.1825,-2.1811,-2.1818,-2.1789,-2.1827,-2.1827,-2.1827,-2.1827,-2.1827,-2.1285,-2.1311,-2.1354,-2.1396,-2.1427,-2.1461,-2.1489,-2.152,-2.1557,-2.1605,-2.1624,-2.1668,-2.1709,-2.1772,-2.1798,-2.1832,-2.1834,-2.1843,-2.1845,-2.1846,-2.1844,-2.1807,-2.1841,-2.1841,-2.1841,-2.1841,-2.1841,0,-2.1308,-2.1337,-2.1375,-2.1426,-2.1458,-2.1471,-2.1513,-2.1538,-2.1577,-2.1615,-2.165,-2.17,-2.1741,-2.178,-2.1823,-2.1843,-2.1852,-2.1853,-2.1852,-2.1857,-2.1841,-2.1831,-2.1846,-2.1846,-2.1846,-2.1846,-2.1846,-2.1846,-2.1323,-2.1366,-2.1388,-2.1447,-2.1476,-2.1519,-2.1542,-2.1573,-2.1603,-2.1657,-2.1692,-2.1717,-2.1755,-2.1801,-2.184,-2.185,-2.1865,-2.1864,-2.1876,-2.186,-2.1859,-2.1858,-2.1849,-2.1867,-2.1867,-2.189,-2.189,-2.1891]},{"header":{"parameterUnit":"m.s-1","parameterCategory":1,"la1":30.2991,"la2":30.254,"lo1":-89.0895,"lo2":-89.0444,"dy":0.0017,"dx":0.0017,"nx":28,"ny":28,"refTime":"2023-09-01T21:00:00:Z","depth":0,"parameterNumber":3,"parameterNumberName":"V-component_of_WINDS"},"data":[0,0,0,0,0,0,0,0,0,0,0,0,0,0,0,0,0,0,0,0,0,0,0,0,0,0,0,0,0,0,0,0,0,0,0,0,0,0,0,0,0,0,0,0,0,0,0,0,0,0,0,0,0,0,0,0,0,0,2.2894,2.2894,0,2.2868,2.2868,2.2868,2.2794,2.2792,2.2791,2.2789,2.2765,2.2766,2.2767,0,0,0,0,0,0,0,0,0,0,0,0,0,2.2881,2.2882,2.2894,2.2894,2.2893,2.2868,2.2868,2.2868,2.2794,2.2792,2.279,2.2789,2.2765,2.2766,2.2767,0,0,0,0,0,0,0,0,0,0,0,0,0,2.2875,2.2882,2.2894,2.2854,2.285,2.2868,2.2868,2.2868,2.2795,2.2792,2.279,2.2788,2.2764,2.2766,2.2767,2.2823,0,0,2.2771,2.2771,0,0,0,0,0,0,0,0,2.2875,2.2875,2.286,2.2856,2.2852,2.2832,2.2854,2.2853,2.2795,2.2816,2.2789,2.2786,2.2789,2.2788,2.2789,2.2822,2.2821,2.2771,2.2772,2.2772,2.2773,0,0,0,0,0,0,0,2.2876,2.2876,2.2884,2.286,2.2855,2.2838,2.2834,2.2854,2.2816,2.2814,2.2808,2.2806,2.2787,2.2788,2.2788,2.282,2.2771,2.2772,2.2773,2.2773,2.2898,2.2901,0,0,0,0,0,0,2.2882,2.2877,2.2885,2.2883,2.2858,2.284,2.2836,2.2841,2.2816,2.281,2.2808,2.2803,2.2787,2.2786,2.2787,2.285,2.2772,2.2773,2.2774,2.2896,2.2899,2.2902,0,0,0,0,0,0,2.2882,2.2883,2.2886,2.2878,2.2877,2.2842,2.2849,2.2842,2.2842,2.2812,2.2805,2.2816,2.2785,2.2785,2.2814,2.2849,2.2774,2.2775,2.2893,2.2897,2.29,2.2979,0,0,0,0,0,0,2.2881,2.2883,2.2904,2.2879,2.2878,2.2913,2.2851,2.2843,2.2845,2.2837,2.2817,2.2812,2.2783,2.2813,2.2816,2.2849,2.2776,2.289,2.2895,2.2899,2.2973,2.2985,2.2995,0,0,0,0,0,2.2881,2.2927,2.2905,2.2906,2.2903,2.2915,2.2915,2.288,2.2848,2.2868,2.2849,2.2812,2.2845,2.2817,2.2819,2.2853,2.2887,2.2893,2.2899,2.2968,2.2983,2.2995,0,0,0,0,0,0,2.2957,2.2923,2.2898,2.2938,2.293,2.2903,2.2927,2.2897,2.2898,2.2891,2.2849,2.2845,2.2881,2.287,2.2839,2.2907,2.286,2.2867,2.2912,2.2925,2.2936,2.2938,2.2777,0,0,0,0,0,2.2978,2.2991,2.2961,2.2998,2.2996,2.2963,2.2967,2.2941,2.2932,2.2928,2.2911,2.2903,2.2912,2.2918,2.2924,2.2972,2.2966,2.2997,2.3008,2.3017,2.3023,2.3047,2.306,2.2921,2.2921,2.2921,0,0,2.3022,2.3005,2.3016,2.3013,2.3004,2.3019,2.296,2.2978,2.2989,2.2931,2.2957,2.2945,2.2934,2.2973,2.2989,2.2965,2.306,2.3024,2.3032,2.3032,2.3054,2.3067,2.3079,2.2925,2.2924,2.2923,0,0,2.3109,2.3098,2.3128,2.312,2.3107,2.3085,2.3092,2.307,2.3059,2.3085,2.3042,2.3055,2.307,2.3064,2.3063,2.315,2.3116,2.3153,2.321,2.3234,2.3245,2.3255,2.3285,2.3297,2.3159,2.3159,2.316,0,2.3165,2.3185,2.3147,2.3168,2.3168,2.3116,2.3147,2.3141,2.3132,2.3133,2.3106,2.3125,2.3114,2.3151,2.3172,2.3173,2.318,2.3154,2.3247,2.3256,2.3264,2.3293,2.3305,2.3164,2.3163,2.3163,2.3162,0,2.3255,2.3269,2.3295,2.3286,2.3289,2.3315,2.3282,2.329,2.3264,2.3245,2.3273,2.3258,2.326,2.3268,2.3243,2.3301,2.3286,2.3254,2.3206,2.3283,2.3309,2.3319,2.317,2.3169,2.3167,2.3166,0,0,2.3387,2.3358,2.3368,2.3363,2.3346,2.3356,2.338,2.3382,2.339,2.3385,2.3404,2.3419,2.3389,2.3388,2.3362,2.3384,2.3453,2.3348,2.3348,2.3368,2.3516,2.354,2.3553,2.3431,2.3433,2.3435,2.3517,0,2.3469,2.3507,2.3474,2.3518,2.3531,2.3483,2.3504,2.3496,2.3479,2.3488,2.347,2.3481,2.3441,2.344,2.3459,2.3441,2.3482,2.3434,2.3449,2.345,2.3452,2.3567,2.3592,2.367,2.3527,2.3529,2.353,0,2.3569,2.3569,2.3614,2.3594,2.3598,2.3617,2.3616,2.3626,2.3616,2.3602,2.3602,2.3571,2.3593,2.3548,2.3578,2.3547,2.3551,2.3543,2.3545,2.3544,2.3494,2.3569,2.3694,2.3706,2.3546,2.3544,2.3543,0,2.3661,2.3672,2.37,2.3698,2.3675,2.369,2.3681,2.3669,2.3673,2.3672,2.3674,2.3677,2.3679,2.3682,2.3653,2.3622,2.3687,2.3639,2.3677,2.3678,2.3692,2.3691,2.3819,2.3696,2.3696,2.3696,2.3695,0,2.3755,2.3785,2.3741,2.3758,2.379,2.3753,2.3786,2.3773,2.3763,2.3777,2.3737,2.3751,2.3712,2.3723,2.37,2.3729,2.373,2.372,2.3714,2.3724,2.3725,2.3725,2.3719,2.3699,2.3698,2.3697,2.3697,0,2.3862,2.3834,2.3862,2.3839,2.3833,2.3858,2.3838,2.3854,2.3835,2.3854,2.3856,2.3827,2.3838,2.3809,2.3816,2.38,2.3842,2.3827,2.3845,2.384,2.388,2.3876,2.4012,2.4027,2.3895,2.3896,2.3897,0,2.3924,2.3945,2.3924,2.3931,2.3924,2.3936,2.3939,2.3904,2.3909,2.39,2.3917,2.3924,2.3928,2.3948,2.3927,2.3932,2.3917,2.3964,2.3917,2.3927,2.3917,2.3916,2.3918,2.3974,2.3975,2.3977,2.3978,0,2.4036,2.4021,2.4027,2.4029,2.4033,2.4033,2.403,2.4038,2.4,2.4008,2.4018,2.4022,2.4028,2.4036,2.4037,2.4029,2.3998,2.3993,2.4002,2.4011,2.4021,2.4016,2.3871,2.3989,2.3988,2.3987,2.3987,2.3986,2.4122,2.4139,2.4127,2.4135,2.4129,2.4127,2.414,2.4123,2.4131,2.4133,2.4112,2.4127,2.4118,2.4115,2.4111,2.4122,2.4101,2.4114,2.4117,2.4121,2.4127,2.402,2.4122,2.4122,2.4122,2.4121,2.4121,0,2.4232,2.4222,2.4229,2.4226,2.4233,2.4202,2.4198,2.4205,2.4219,2.4212,2.4217,2.4229,2.4237,2.4218,2.4223,2.4236,2.4222,2.4238,2.4237,2.4235,2.4146,2.4138,2.425,2.425,2.425,2.425,2.425,2.425,2.4289,2.4316,2.4301,2.4325,2.4315,2.4328,2.4328,2.4327,2.4321,2.4337,2.4343,2.433,2.4319,2.4322,2.4329,2.4323,2.4326,2.4348,2.4337,2.4254,2.4242,2.423,2.4221,2.4349,2.4349,2.4425,2.4426,2.4427]}]]